ONEWEB-0622 (55163 NORAD) Tracking and Keplerian Element Data

This shows tracking and keplerian element data for the satellite.

Feedback or suggestion? Click here.




ElementValue
Catalog55163
NameONEWEB-0622
Epoch Orbit130
Epoch Day85.00001157
Epoch Year2023
RAAN257.1344
Inclination87.2914
Eccentricity0.0007596
Argument of Perigee6.6208
Mean Anonmoly254.7322
Mean Motion13.92827621
Decay Rate-8.147E-05
L11 55163U 23004Z 23085.00001157 -.00008147 00000+0 -63146-2 0 9994
L22 55163 87.2914 257.1344 0007596 6.6208 254.7322 13.92827621 1308



Live tracking and technical data element details for ONEWEB-0622 (NORAD 55163). ONEWEB-0622 can be tracked NOW for your location showing map with azimuth and elevation plus other details from your city location.







IsCatalogInMostPopularTable: catalog: 55163, numindb: 12
Update: records affected: 1



GetName: 55163 ONEWEB-0622

Hit Count: updated at: Mon, 27 Mar 2023 08:03:08 GMT